Weather History for KHDE - February, 2013

Change the Weather History Date:

Saturday, February 9, 2013

  Actual Average Record
Temperature  
Mean Temperature 40 °F -  
Max Temperature 51 °F 38 °F 68 °F (1977)
Min Temperature 30 °F 13 °F -7 °F (1975)
Degree Days  
Heating Degree Days 24    
Moisture  
Dew Point 33 °F    
Average Humidity 81    
Maximum Humidity 94    
Minimum Humidity 45    
Precipitation  
Precipitation 0.02 in - - ()
Sea Level Pressure  
Sea Level Pressure 29.72 in    
Wind  
Wind Speed 17 mph (SSE)    
Max Wind Speed 26 mph    
Max Gust Speed 37 mph    
Visibility 7 miles    
Events Rain , Thunderstorm    
Averages and records for this station are not official NWS values.
T = Trace of Precipitation, MM = Missing Value Source: NWS Daily Summary

Daily Weather History Graph

Daily Weather History Graph

Search for Another Location

Airport or City:

Trip Planner

Search our weather history database for the weather conditions in past years. The results will help you decide how hot, cold, wet, or windy it might be!

Date:

Astronomy

Feb. 09, 2013 Rise Set
Actual Time 7:37 AM CST 6:05 PM CST
Civil Twilight 7:09 AM CST 6:34 PM CST
Nautical Twilight 6:37 AM CST 7:06 PM CST
Astronomical Twilight 6:05 AM CST 7:38 PM CST
Moon 6:50 AM CST (2/9) 5:50 PM CST (2/9)
Length of Visible Light 11h 24m
Length of Day
10h 27m
Waning Crescent, 0% of the Moon is Illuminated
Feb 9
Waning Crescent
Feb 10
New
Feb 17
First Quarter
Feb 25
Full
Mar 4
Last Quarter

Hourly Weather History & Observations

Time (CST) Temp. Windchill Dew Point Humidity Pressure Visibility Wind Dir Wind Speed Gust Speed Precip Events Conditions
12:15 AM 32.9 °F 22.8 °F 28.2 °F 83% 29.93 in 10.0 mi SSE 15.0 mph 20.7 mph N/A   Clear
12:35 AM 32.9 °F 22.0 °F 28.2 °F 83% 29.93 in 10.0 mi SSE 17.3 mph 20.7 mph N/A   Clear
12:55 AM 32.7 °F 21.8 °F 28.2 °F 83% 29.93 in 10.0 mi SSE 17.3 mph - N/A   Clear
1:15 AM 32.4 °F 22.1 °F 28.4 °F 85% 29.92 in 10.0 mi SSE 15.0 mph - N/A   Clear
1:35 AM 32.0 °F 21.6 °F 28.4 °F 87% 29.92 in 7.0 mi SE 15.0 mph - N/A   Clear
1:55 AM 32.0 °F 22.1 °F 28.4 °F 87% 29.92 in 7.0 mi SE 13.8 mph - N/A   Clear
2:15 AM 32.0 °F 21.6 °F 28.4 °F 87% 29.91 in 7.0 mi SE 15.0 mph - N/A   Clear
2:35 AM 31.8 °F 21.8 °F 28.6 °F 88% 29.90 in 7.0 mi SE 13.8 mph - N/A   Clear
2:55 AM 31.8 °F 21.8 °F 28.9 °F 89% 29.90 in 5.0 mi SE 13.8 mph 18.4 mph N/A   Clear
3:15 AM 31.8 °F 21.8 °F 29.1 °F 90% 29.89 in 5.0 mi SE 13.8 mph - N/A   Clear
3:35 AM 31.5 °F 21.4 °F 28.9 °F 90% 29.89 in 5.0 mi SE 13.8 mph - N/A   Clear
3:55 AM 31.5 °F 20.9 °F 29.1 °F 91% 29.87 in 5.0 mi SSE 15.0 mph - N/A   Clear
4:15 AM 31.1 °F 21.4 °F 28.9 °F 92% 29.87 in 4.0 mi SSE 12.7 mph 18.4 mph N/A   Clear
4:35 AM 31.1 °F 20.9 °F 28.9 °F 92% 29.87 in 4.0 mi SSE 13.8 mph - N/A   Clear
4:55 AM 31.1 °F 21.4 °F 28.8 °F 91% 29.86 in 5.0 mi SSE 12.7 mph - N/A   Clear
5:15 AM 30.9 °F 20.2 °F 28.6 °F 91% 29.86 in 4.0 mi SSE 15.0 mph - N/A   Clear
5:35 AM 30.7 °F 20.0 °F 28.4 °F 91% 29.86 in 4.0 mi SSE 15.0 mph - N/A   Clear
5:55 AM 30.6 °F 19.4 °F 28.4 °F 92% 29.85 in 4.0 mi SSE 16.1 mph 20.7 mph N/A   Clear
6:15 AM 30.6 °F 19.0 °F 28.4 °F 92% 29.84 in 4.0 mi SSE 17.3 mph 23.0 mph N/A   Clear
6:35 AM 30.9 °F 19.4 °F 28.6 °F 91% 29.84 in 5.0 mi SSE 17.3 mph 21.9 mph N/A   Clear
6:55 AM 30.9 °F 19.1 °F 28.8 °F 92% 29.84 in 5.0 mi SSE 18.4 mph 24.2 mph N/A   Clear
7:15 AM 30.9 °F 18.7 °F 28.8 °F 92% 29.83 in 5.0 mi SSE 19.6 mph 24.2 mph N/A   Clear
7:35 AM 31.1 °F 20.1 °F 28.8 °F 91% 29.83 in 5.0 mi SSE 16.1 mph - N/A   Clear
7:55 AM 31.1 °F 20.1 °F 28.9 °F 92% 29.83 in 3.0 mi SSE 16.1 mph 23.0 mph N/A   Clear
8:15 AM 31.5 °F 20.1 °F 29.3 °F 92% 29.83 in 3.0 mi SSE 17.3 mph 24.2 mph N/A   Clear
8:35 AM 32.2 °F 20.7 °F 30.0 °F 92% 29.83 in 4.0 mi SSE 18.4 mph 24.2 mph N/A   Clear
8:55 AM 33.6 °F 21.3 °F 30.6 °F 89% 29.82 in 4.0 mi SSE 23.0 mph 28.8 mph N/A   Clear
9:15 AM 34.9 °F 23.6 °F 31.1 °F 86% 29.82 in 5.0 mi SSE 20.7 mph 27.6 mph N/A   Clear
9:35 AM 36.7 °F 24.9 °F 31.5 °F 81% 29.82 in 7.0 mi South 25.3 mph - N/A   Clear
9:55 AM 38.3 °F 27.6 °F 31.3 °F 76% 29.82 in 7.0 mi South 23.0 mph 29.9 mph N/A   Clear
10:15 AM 39.2 °F 28.5 °F 31.3 °F 73% 29.81 in 7.0 mi South 24.2 mph 28.8 mph N/A   Clear
10:35 AM 41.0 °F 30.9 °F 31.5 °F 69% 29.80 in 10.0 mi SSE 24.2 mph 31.1 mph N/A   Clear
10:55 AM 42.6 °F 34.6 °F 31.1 °F 64% 29.81 in 10.0 mi South 17.3 mph 27.6 mph N/A   Clear
11:15 AM 43.9 °F 35.2 °F 30.6 °F 59% 29.80 in 10.0 mi South 21.9 mph 26.5 mph N/A   Clear
11:35 AM 43.9 °F 35.2 °F 31.3 °F 61% 29.78 in 10.0 mi South 21.9 mph 31.1 mph N/A   Clear
11:55 AM 45.5 °F 37.3 °F 31.6 °F 58% 29.76 in 10.0 mi South 21.9 mph 26.5 mph N/A   Clear
12:15 PM 46.0 °F 37.8 °F 31.1 °F 56% 29.74 in 10.0 mi South 23.0 mph 32.2 mph N/A   Clear
12:35 PM 47.3 °F - 31.3 °F 54% 29.74 in 10.0 mi South 13.8 mph 29.9 mph N/A   Scattered Clouds
12:55 PM 48.2 °F - 32.0 °F 54% 29.71 in 10.0 mi South 19.6 mph 26.5 mph N/A   Mostly Cloudy
1:15 PM 51.1 °F - 30.2 °F 45% 29.70 in 10.0 mi South 24.2 mph 32.2 mph N/A   Mostly Cloudy
1:35 PM 50.0 °F - 31.6 °F 49% 29.69 in 10.0 mi South 21.9 mph 33.4 mph N/A   Mostly Cloudy
1:55 PM 49.3 °F - 32.4 °F 52% 29.67 in 10.0 mi South 20.7 mph 27.6 mph N/A   Mostly Cloudy
2:15 PM 51.1 °F - 33.3 °F 51% 29.65 in 10.0 mi South 23.0 mph 28.8 mph N/A   Scattered Clouds
2:35 PM 50.9 °F - 34.0 °F 52% 29.62 in 10.0 mi SSE 18.4 mph 28.8 mph N/A   Mostly Cloudy
2:55 PM 47.7 °F - 37.0 °F 67% 29.63 in 5.0 mi South 18.4 mph 26.5 mph 0.02 in Rain , Thunderstorm Heavy Thunderstorms and Rain
3:15 PM 46.8 °F - 40.1 °F 78% 29.62 in 10.0 mi SSE 16.1 mph 21.9 mph N/A   Overcast
3:35 PM 48.4 °F - 41.5 °F 77% 29.61 in 10.0 mi SSE 19.6 mph 28.8 mph N/A   Mostly Cloudy
3:55 PM 47.7 °F - 40.1 °F 75% 29.60 in 10.0 mi SSE 17.3 mph 27.6 mph N/A   Mostly Cloudy
4:15 PM 47.8 °F - 40.1 °F 75% 29.59 in 10.0 mi SSE 19.6 mph 25.3 mph N/A   Overcast
4:35 PM 47.7 °F - 39.7 °F 74% 29.58 in 10.0 mi SSE 19.6 mph 24.2 mph N/A   Overcast
4:55 PM 46.9 °F - 39.6 °F 76% 29.58 in 10.0 mi SE 15.0 mph 23.0 mph N/A   Overcast
5:15 PM 46.6 °F - 39.7 °F 77% 29.57 in 10.0 mi SSE 20.7 mph 28.8 mph N/A   Overcast
5:35 PM 46.2 °F 38.7 °F 39.6 °F 78% 29.55 in 10.0 mi SSE 19.6 mph 27.6 mph N/A   Overcast
5:55 PM 45.7 °F 36.7 °F 39.6 °F 79% 29.55 in 10.0 mi SSE 26.5 mph 34.5 mph N/A   Overcast
6:15 PM 45.0 °F 36.2 °F 39.7 °F 82% 29.57 in 10.0 mi SSE 24.2 mph 36.8 mph N/A   Overcast
6:35 PM 44.2 °F 35.7 °F 39.7 °F 84% 29.56 in 10.0 mi SSE 21.9 mph 26.5 mph N/A   Overcast
6:55 PM 44.2 °F 36.4 °F 39.9 °F 85% 29.56 in 10.0 mi SSE 18.4 mph 32.2 mph N/A   Overcast
7:35 PM 43.2 °F 35.9 °F 39.6 °F 87% 29.56 in 10.0 mi SSE 15.0 mph 23.0 mph N/A   Overcast
7:55 PM 43.0 °F 35.1 °F 39.7 °F 88% 29.57 in 7.0 mi SSE 17.3 mph 24.2 mph N/A   Overcast
8:15 PM 42.6 °F 35.2 °F 39.2 °F 88% 29.55 in 7.0 mi SSE 15.0 mph - N/A   Overcast
8:35 PM 42.4 °F 36.5 °F 39.2 °F 88% 29.55 in 10.0 mi SSE 10.4 mph 18.4 mph N/A Thunderstorm Overcast
8:55 PM 42.1 °F 33.3 °F 38.7 °F 88% 29.55 in 10.0 mi SSE 19.6 mph 24.2 mph N/A   Overcast
9:15 PM 41.4 °F 33.3 °F 38.3 °F 89% 29.53 in 7.0 mi SSE 16.1 mph 28.8 mph N/A   Overcast
9:35 PM 40.6 °F 30.9 °F 37.6 °F 89% 29.53 in 7.0 mi SSE 21.9 mph 25.3 mph N/A   Overcast
9:55 PM 40.1 °F 30.7 °F 37.6 °F 91% 29.53 in 5.0 mi SSE 19.6 mph 24.2 mph N/A   Overcast
10:15 PM 40.1 °F 30.7 °F 37.8 °F 91% 29.52 in 5.0 mi SSE 19.6 mph 24.2 mph N/A   Overcast
10:35 PM 39.9 °F 30.8 °F 37.8 °F 92% 29.50 in 5.0 mi SSE 18.4 mph 25.3 mph N/A   Overcast
10:55 PM 39.7 °F 31.2 °F 37.8 °F 93% 29.48 in 5.0 mi SE 16.1 mph 21.9 mph N/A   Overcast
11:15 PM 39.4 °F 29.5 °F 37.6 °F 93% 29.47 in 3.0 mi SSE 20.7 mph 25.3 mph N/A   Overcast
11:35 PM 39.2 °F 28.7 °F 37.6 °F 94% 29.47 in 2.5 mi SSE 23.0 mph 27.6 mph N/A   Overcast
11:55 PM 39.2 °F 30.2 °F 37.6 °F 94% 29.44 in 2.0 mi SE 17.3 mph - N/A   Overcast